Date,TemperatureHighF,TemperatureAvgF,TemperatureLowF,DewpointHighF,DewpointAvgF,DewpointLowF,HumidityHigh,HumidityAvg,HumidityLow,PressureMaxIn,PressureMinIn,WindSpeedMaxMPH,WindSpeedAvgMPH,GustSpeedMaxMPH,PrecipitationSumIn
2013-3-1,75,53,39,55,45,37,99,77,45,30.43,30.24,2,0,0,0.00
2013-3-2,70,54,42,56,47,40,95,80,55,30.25,30.05,3,0,0,0.00
2013-3-3,66,53,47,52,47,43,90,81,56,30.09,30.01,6,2,0,0.00
2013-3-4,58,47,39,47,43,36,93,84,68,30.15,30.06,3,1,0,0.00
2013-3-5,54,45,33,46,40,31,95,84,70,30.08,29.78,8,2,0,0.00
2013-3-6,57,49,39,48,42,36,93,79,55,30.06,29.78,8,2,0,0.00
2013-3-7,57,44,34,44,38,32,95,80,50,30.01,29.87,4,0,0,0.00
2013-3-8,67,48,33,47,39,31,99,74,35,30.03,29.84,2,0,0,0.00
2013-3-9,74,50,33,49,40,31,95,72,29,30.32,30.03,3,0,0,0.00
2013-3-10,72,50,34,49,40,32,95,74,29,30.35,30.23,5,1,0,0.00
2013-3-11,72,50,36,50,42,34,95,78,40,30.27,30.10,4,1,0,0.00
2013-3-12,73,52,40,56,45,38,95,81,49,30.17,30.06,5,1,0,0.00
2013-3-13,82,55,40,59,47,38,96,78,41,30.17,30.05,3,0,0,0.00
2013-3-14,70,54,43,57,47,41,95,80,56,30.17,30.09,4,1,0,0.00
2013-3-15,73,53,40,56,46,38,95,79,47,30.14,30.02,4,1,0,0.00
2013-3-16,76,56,38,55,43,34,95,67,22,30.12,30.01,6,1,0,0.00
2013-3-17,70,54,41,48,41,35,85,64,30,30.15,30.03,5,1,0,0.00
2013-3-18,67,50,37,48,42,35,95,76,47,30.12,30.02,4,1,0,0.00
2013-3-19,62,50,42,50,44,40,94,80,56,30.13,30.05,1,0,0,0.00
2013-3-20,60,51,45,56,48,43,95,91,80,30.14,30.06,2,0,0,0.00
2013-3-21,69,51,36,48,42,34,95,73,41,30.14,30.00,3,1,0,0.00
2013-3-22,72,54,42,40,36,29,77,54,23,30.14,30.02,3,1,0,0.00
2013-3-23,70,51,36,44,38,33,92,65,31,30.15,30.03,4,1,0,0.00
2013-3-24,70,50,37,51,42,35,95,76,42,30.09,29.96,6,1,0,0.00
2013-3-25,58,48,39,48,42,37,95,83,62,30.04,29.94,4,1,0,0.00
2013-3-26,64,50,40,50,44,38,95,81,55,30.01,29.93,4,1,0,0.00
2013-3-27,62,51,43,53,47,41,94,86,69,30.02,29.95,3,0,0,0.00
2013-3-28,65,54,47,55,50,45,95,86,70,30.09,30.01,2,0,0,0.00
2013-3-29,77,58,48,59,51,47,95,81,47,30.10,30.01,3,1,0,0.00
2013-3-30,68,56,49,56,50,-100,93,84,63,30.08,30.00,3,0,0,0.00
2013-3-31,61,55,51,56,52,49,95,92,77,30.07,30.00,2,0,0,0.00